Temp
10 10 11 10 10 9 9 9 8 7 7 7 6 5 5 4 2 2 3 1 1 0 -0 -0 -0 -1 -1 -2 -2 -2 -3 -3 -3 -3 -2 -2 -2 -1
8 9 9 9 9 9 8 8 7 7 6 5 5 4 4 3 3 3 2 1 0 -0 -1 -1 -2 -3 -2 -1 -2 -3 -4 -4 -3 -3 -3 -2 -2 -2
8 8 8 8 8 8 7 6 6 6 5 5 4 3 3 2 1 1 1 -0 -1 -1 -1 -2 -2 -2 -2 -4 -4 -4 -4 -4 -4 -4 -3 -3 -3 -3
6 7 7 7 6 6 6 5 5 4 3 3 2 1 1 1 1 0 -0 -1 -1 -2 -2 -3 -3 -3 -3 -2 -3 -5 -5 -4 -4 -4 -4 -4 -3 -3
5 5 5 5 5 5 5 4 3 3 3 2 1 1 0 -0 -1 0 -0 -1 -2 -2 -3 -3 -2 -2 -2 -2 -2 -3 -4 -3 -3 -3 -4 -5 -5 -4
4 4 5 4 5 4 2 2 2 1 1 1 -0 -0 -1 -1 -1 -2 -2 -3 -3 -3 -3 -2 -2 -2 -3 -3 -3 -3 -3 -3 -3 -4 -5 -5 -5 -4
4 4 3 2 2 1 1 1 1 0 0 -0 -1 -1 -2 -2 -3 -3 -3 -3 -3 -3 -3 -3 -3 -3 -3 -3 -3 -3 -4 -4 -4 -4 -5 -5 -5 -5
2 2 1 1 1 1 0 0 0 -0 -1 -1 -2 -2 -3 -3 -3 -3 -4 -4 -3 -3 -3 -2 -3 -2 -2 -3 -3 -3 -3 -3 -4 -5 -5 -6 -5 -5
1 1 1 1 0 1 1 0 -0 -1 -2 -2 -3 -3 -3 -4 -4 -4 -5 -5 -5 -4 -4 -2 -3 -2 -3 -3 -3 -3 -4 -4 -4 -5 -6 -6 -6 -6
1 1 1 1 1 0 -0 -1 -2 -2 -3 -3 -3 -4 -4 -5 -5 -5 -5 -5 -5 -4 -4 -3 -3 -2 -2 -2 -2 -4 -4 -5 -5 -5 -5 -5 -5 -6
1 1 0 -0 -1 -1 -2 -2 -3 -3 -4 -5 -5 -5 -6 -5 -7 -6 -5 -5 -5 -5 -5 -5 -3 -2 -2 -2 -3 -3 -4 -5 -5 -5 -5 -5 -5 -4
0 -0 -1 -1 -2 -3 -2 -3 -4 -4 -5 -5 -5 -6 -6 -6 -5 -5 -5 -5 -5 -5 -5 -6 -5 -5 -4 -2 -3 -3 -4 -4 -5 -5 -5 -5 -5 -5
-0 -1 -2 -2 -3 -4 -4 -5 -5 -5 -5 -5 -6 -6 -6 -6 -5 -5 -5 -5 -5 -5 -6 -6 -5 -7 -9 -5 -2 -3 -4 -4 -4 -4 -5 -6 -6 -6
-1 -2 -2 -3 -4 -4 -5 -5 -6 -6 -6 -6 -6 -6 -6 -6 -5 -5 -5 -5 -5 -5 -6 -7 -7 -7 -8 -7 -6 -3 -4 -4 -4 -4 -5 -6 -6 -6
-2 -3 -3 -4 -5 -5 -6 -6 -6 -6 -6 -6 -6 -6 -5 -5 -5 -5 -5 -5 -5 -5 -6 -7 -7 -7 -8 -8 -7 -5 -5 -4 -4 -5 -5 -6 -6 -5
-3 -3 -4 -5 -5 -6 -6 -7 -7 -7 -7 -6 -6 -6 -5 -5 -5 -5 -5 -5 -5 -5 -6 -7 -7 -8 -7 -8 -8 -6 -6 -7 -5 -6 -7 -6 -6 -6
-3 -4 -4 -5 -6 -6 -7 -7 -7 -7 -6 -6 -6 -5 -5 -5 -5 -6 -6 -6 -6 -5 -5 -6 -7 -8 -8 -8 -7 -6 -6 -6 -6 -6 -7 -6 -5 -6
-3 -4 -4 -5 -6 -6 -7 -7 -7 -7 -6 -6 -6 -6 -6 -6 -6 -6 -6 -7 -6 -6 -6 -7 -7 -7 -6 -5 -6 -7 -7 -7 -7 -7 -7 -8 -6 -6
-3 -4 -5 -5 -6 -6 -7 -7 -7 -6 -6 -6 -6 -6 -6 -6 -6 -6 -7 -7 -7 -7 -7 -7 -7 -8 -9 -8 -6 -8 -8 -8 -7 -7 -7 -8 -8 -6
-3 -4 -5 -6 -6 -7 -7 -7 -7 -7 -7 -7 -6 -7 -6 -7 -6 -6 -7 -7 -7 -7 -7 -7 -8 -8 -9 -9 -9 -5 -7 -8 -9 -8 -7 -7 -7 -7
-4 -4 -5 -5 -6 -7 -7 -7 -7 -7 -7 -7 -7 -7 -7 -7 -7 -7 -7 -8 -8 -9 -8 -7 -8 -8 -8 -9 -9 -6 -5 -7 -9 -9 -7 -8 -8 -8
-4 -4 -4 -5 -6 -6 -7 -7 -7 -7 -7 -8 -7 -7 -7 -8 -7 -8 -8 -8 -8 -9 -9 -8 -8 -8 -8 -8 -8 -8 -7 -6 -7 -7 -7 -8 -8 -8
-3 -4 -4 -5 -6 -6 -6 -7 -7 -7 -7 -8 -8 -8 -8 -8 -8 -8 -8 -9 -9 -9 -9 -9 -8 -8 -8 -8 -8 -8 -9 -9 -8 -7 -6 -7 -8 -8
Height
1512 1512 1513 1512 1512 1512 1512 1512 1512 1510 1509 1511 1513 1512 1512 1512 1514 1514 1513 1515 1516 1515 1514 1514 1513 1515 1512 1512 1510 1509 1509 1509 1507 1507 1507 1507 1507 1510
1506 1506 1507 1507 1507 1507 1506 1506 1506 1506 1507 1507 1508 1508 1507 1507 1508 1508 1508 1509 1510 1509 1510 1509 1509 1508 1507 1505 1504 1502 1502 1502 1502 1502 1502 1501 1502 1503
1500 1500 1501 1501 1501 1501 1501 1501 1502 1503 1503 1503 1503 1503 1503 1504 1503 1503 1504 1505 1505 1505 1504 1504 1503 1502 1501 1500 1498 1496 1496 1496 1497 1495 1493 1495 1496 1497
1496 1496 1496 1497 1497 1497 1498 1498 1498 1499 1500 1500 1500 1500 1500 1501 1500 1500 1501 1502 1501 1500 1500 1499 1498 1497 1496 1493 1492 1491 1489 1489 1489 1487 1488 1489 1490 1488
1492 1493 1493 1493 1493 1494 1494 1494 1495 1496 1496 1497 1497 1497 1497 1498 1498 1499 1497 1497 1496 1496 1497 1495 1493 1491 1489 1488 1485 1484 1482 1481 1482 1481 1481 1484 1482 1482
1489 1490 1490 1491 1492 1492 1492 1492 1494 1495 1495 1495 1496 1496 1496 1496 1495 1494 1495 1494 1493 1492 1491 1489 1488 1486 1484 1482 1480 1479 1478 1477 1477 1476 1477 1476 1476 1475
1486 1488 1489 1489 1490 1491 1491 1491 1492 1493 1493 1493 1493 1493 1492 1492 1492 1492 1491 1489 1488 1487 1486 1486 1484 1482 1480 1478 1476 1475 1474 1473 1472 1471 1470 1470 1470 1469
1486 1486 1486 1487 1489 1489 1489 1489 1490 1491 1491 1491 1491 1491 1490 1490 1489 1489 1488 1486 1486 1485 1482 1482 1480 1479 1476 1475 1473 1471 1469 1467 1466 1464 1463 1463 1462 1461
1486 1487 1487 1487 1488 1488 1488 1488 1488 1488 1488 1488 1488 1488 1488 1487 1486 1486 1485 1484 1484 1483 1479 1478 1477 1475 1473 1471 1468 1465 1464 1463 1461 1459 1457 1456 1454 1453
1486 1487 1487 1487 1487 1487 1487 1487 1486 1486 1486 1485 1485 1485 1484 1484 1483 1482 1482 1481 1480 1480 1477 1473 1473 1470 1468 1465 1462 1461 1461 1458 1456 1454 1451 1449 1446 1444
1487 1486 1486 1486 1486 1486 1485 1484 1483 1483 1483 1482 1482 1481 1481 1480 1480 1479 1479 1478 1476 1475 1474 1471 1469 1464 1461 1459 1458 1459 1457 1454 1450 1448 1445 1442 1439 1437
1486 1486 1485 1485 1484 1483 1483 1481 1480 1480 1479 1479 1479 1478 1478 1478 1477 1477 1476 1475 1473 1472 1471 1468 1464 1462 1455 1454 1455 1452 1450 1448 1444 1441 1438 1435 1433 1430
1486 1485 1484 1482 1482 1481 1479 1478 1477 1477 1476 1476 1476 1476 1476 1476 1475 1474 1473 1471 1470 1469 1469 1466 1461 1459 1457 1449 1445 1445 1443 1441 1438 1435 1432 1430 1428 1425
1484 1484 1482 1480 1479 1478 1476 1475 1474 1474 1474 1473 1473 1473 1473 1473 1472 1471 1470 1468 1466 1465 1464 1462 1459 1456 1452 1447 1441 1439 1437 1434 1431 1428 1427 1424 1422 1419
1483 1481 1480 1478 1476 1475 1474 1473 1472 1472 1471 1471 1471 1471 1470 1469 1468 1467 1466 1464 1462 1461 1460 1458 1455 1452 1449 1444 1438 1433 1429 1425 1425 1422 1419 1416 1413 1411
1480 1479 1476 1474 1473 1472 1470 1470 1469 1469 1469 1468 1468 1468 1467 1466 1464 1462 1461 1459 1457 1457 1456 1454 1451 1448 1443 1439 1436 1429 1428 1424 1420 1417 1413 1408 1406 1403
1477 1475 1474 1472 1471 1469 1468 1468 1467 1467 1466 1466 1465 1464 1463 1462 1461 1459 1457 1455 1453 1450 1449 1449 1446 1443 1439 1435 1429 1426 1421 1418 1415 1411 1407 1402 1400 1397
1474 1472 1471 1469 1468 1467 1466 1465 1465 1464 1463 1463 1462 1461 1460 1458 1457 1456 1454 1451 1449 1446 1443 1442 1439 1435 1431 1426 1424 1419 1416 1412 1409 1406 1402 1396 1389 1388
1471 1469 1467 1466 1465 1464 1463 1462 1461 1460 1460 1459 1458 1457 1456 1454 1452 1451 1449 1446 1444 1441 1439 1437 1434 1431 1425 1418 1414 1414 1411 1408 1403 1398 1395 1391 1385 1381
1467 1465 1464 1462 1461 1460 1459 1458 1457 1456 1455 1454 1453 1452 1451 1449 1447 1446 1443 1441 1438 1435 1432 1430 1429 1426 1422 1417 1410 1404 1405 1401 1397 1391 1386 1383 1378 1373
1463 1462 1460 1459 1457 1456 1455 1454 1453 1452 1450 1449 1448 1447 1446 1444 1442 1440 1438 1436 1432 1430 1426 1424 1423 1420 1415 1411 1405 1399 1397 1396 1391 1386 1380 1375 1369 1364
1460 1458 1456 1454 1452 1451 1450 1448 1447 1446 1445 1444 1443 1442 1441 1439 1436 1434 1431 1428 1427 1423 1419 1417 1415 1412 1409 1405 1398 1392 1386 1383 1382 1379 1375 1372 1366 1358
1455 1454 1452 1450 1448 1446 1444 1442 1441 1440 1439 1439 1437 1435 1434 1432 1430 1428 1425 1423 1420 1417 1414 1410 1407 1405 1401 1397 1393 1386 1380 1375 1372 1366 1361 1361 1357 1351
Wind_Speed
28 29 30 29 28 29 32 36 36 27 25 30 25 26 27 28 32 33 32 31 29 27 24 25 23 23 21 20 21 22 20 21 20 18 17 18 18 19
23 25 26 26 27 27 27 28 26 26 25 22 20 18 20 19 23 25 25 25 22 19 19 19 17 18 21 24 22 21 20 19 18 18 18 17 18 21
22 20 22 21 20 17 16 15 17 18 20 21 18 17 16 18 16 16 15 15 16 16 16 17 19 21 20 18 18 18 17 18 18 17 17 17 18 20
17 17 18 18 17 17 18 18 17 16 14 14 13 12 12 11 13 12 11 11 14 16 15 16 16 18 20 20 21 19 16 16 16 16 16 18 19 18
12 13 13 13 14 14 13 12 11 11 11 10 10 8 8 8 8 10 12 14 16 16 15 18 21 21 21 21 18 18 19 21 21 20 20 20 19 19
8 7 8 8 10 10 9 7 7 7 7 6 6 5 8 11 13 11 12 13 15 16 19 18 14 14 15 17 18 18 19 20 20 20 19 18 19 20
4 5 4 4 4 4 4 3 4 5 7 7 8 9 9 9 11 12 13 16 17 16 13 8 14 12 13 16 17 18 19 20 20 21 21 21 21 23
6 6 5 4 3 3 3 5 5 5 6 8 9 9 10 12 12 14 15 16 13 8 12 6 12 10 13 14 15 17 18 20 20 20 20 21 21 21
8 6 4 2 2 2 4 6 7 8 9 10 10 10 11 12 13 14 13 11 11 9 15 11 10 9 13 16 17 16 10 11 16 17 18 19 21 23
7 5 2 1 4 5 7 8 9 10 11 11 11 11 11 11 11 10 9 9 10 9 12 17 12 16 17 16 13 7 11 13 15 18 19 21 24 25
3 1 2 4 7 8 8 9 10 11 11 12 12 11 11 10 9 9 10 10 13 11 10 12 17 21 21 10 4 8 15 15 15 16 19 22 24 25
2 3 5 7 8 10 11 12 11 12 12 12 12 11 10 9 10 11 11 12 13 12 7 18 21 21 19 12 19 18 18 13 15 16 18 20 20 20
4 6 7 9 10 11 12 11 11 11 10 10 9 8 9 10 11 12 14 15 15 14 12 16 21 22 20 28 29 26 22 20 18 16 14 12 16 20
7 8 9 10 11 13 13 11 11 11 9 7 7 8 9 11 13 13 14 15 15 15 13 14 20 20 21 27 32 28 26 22 22 14 12 18 16 20
8 9 10 10 10 10 10 10 10 8 8 8 8 10 11 11 12 13 13 15 16 14 13 14 17 19 19 24 30 31 30 29 15 22 19 21 21 21
9 10 10 11 12 11 10 8 8 8 9 10 10 11 11 11 11 13 14 14 17 14 14 16 15 17 22 25 27 30 26 25 25 22 23 25 25 23
10 11 11 11 10 10 9 8 8 10 11 12 12 11 11 11 12 13 15 16 18 20 18 14 13 17 21 25 28 27 21 24 22 24 25 27 26 24
12 12 12 12 11 10 10 10 11 13 13 13 12 12 13 14 14 13 14 16 19 20 21 19 17 20 23 27 21 22 25 24 28 26 26 29 31 27
12 13 13 13 12 11 11 12 13 13 14 14 14 14 15 15 16 16 16 18 21 22 21 20 18 19 25 31 34 22 19 31 27 27 28 29 32 31
12 13 14 14 14 14 14 14 15 16 16 16 16 17 17 18 19 19 19 22 22 23 24 22 20 20 23 26 31 33 29 29 27 30 31 32 33 31
13 14 14 14 15 15 16 16 17 18 19 19 19 19 19 20 21 21 22 22 23 24 27 25 21 22 23 25 30 33 30 28 26 29 32 34 35 35
13 15 15 16 16 17 18 19 19 20 21 21 22 22 21 21 23 24 24 26 25 26 27 27 25 22 24 25 30 33 36 36 32 29 29 30 30 32
14 15 15 16 17 17 19 20 21 21 21 22 23 23 23 25 24 25 26 26 25 27 27 29 27 25 26 27 30 34 34 39 38 38 39 33 32 32
Wind_Direction
258 264 268 272 276 277 274 272 266 257 270 276 269 267 265 264 261 264 270 273 272 275 273 271 270 268 275 279 279 278 279 280 281 284 283 282 282 279
263 262 268 272 272 279 271 264 264 266 262 276 274 269 261 255 257 265 267 269 274 274 273 276 279 282 280 281 280 283 283 285 284 282 281 278 273 269
262 264 263 268 273 264 269 270 271 270 268 265 266 259 253 254 259 265 267 269 272 279 283 279 277 279 280 282 283 282 283 283 280 278 273 275 268 270
256 259 263 264 274 277 276 278 277 271 261 256 251 247 250 257 262 263 272 286 280 275 278 274 273 277 284 283 281 284 288 278 278 281 281 278 276 275
251 257 261 264 268 273 273 268 265 261 252 244 243 248 256 267 280 270 268 267 271 275 274 281 291 290 284 283 287 281 273 278 286 284 281 276 277 274
238 261 271 267 266 258 253 255 260 264 258 252 253 254 259 266 266 269 272 272 273 282 288 290 292 288 290 286 282 284 287 288 287 284 281 284 281 278
201 235 242 233 231 237 244 254 264 262 253 246 248 257 261 263 273 278 282 287 294 298 289 282 286 286 282 283 289 291 288 283 280 279 278 277 275 274
142 143 142 151 187 214 243 260 245 253 258 262 266 269 269 273 276 281 289 295 308 297 293 282 283 278 278 285 290 287 285 283 280 280 281 277 277 275
120 124 129 145 213 256 270 279 282 281 277 275 275 273 276 276 278 281 285 288 296 312 303 304 294 292 296 301 294 288 275 286 281 280 274 271 270 274
116 109 113 251 267 277 280 280 280 280 279 278 277 279 280 280 279 277 278 287 297 308 294 299 308 311 310 308 291 246 304 295 288 288 285 279 277 277
121 135 278 286 289 287 289 288 286 281 277 278 284 285 281 278 272 276 285 290 300 311 297 293 318 321 322 324 230 289 311 302 295 289 287 285 285 283
345 318 308 305 300 297 299 298 293 286 279 274 271 268 264 259 263 266 274 286 297 310 286 310 321 331 327 322 312 324 328 321 308 301 295 290 289 290
320 314 312 311 302 301 301 298 291 283 278 273 260 249 250 257 265 274 280 283 284 282 293 301 311 317 309 312 319 328 330 328 317 309 293 284 290 293
317 312 311 307 303 300 297 295 285 284 275 257 246 252 263 270 277 277 277 279 281 285 295 302 304 315 311 311 311 322 325 323 320 322 303 299 290 289
313 314 309 303 299 297 292 282 276 265 254 249 258 266 270 273 277 283 286 285 283 286 289 300 307 313 309 307 309 316 323 323 324 326 319 312 308 301
316 315 316 312 312 310 303 281 265 254 250 252 259 267 272 280 288 296 298 293 292 293 288 293 298 301 305 304 306 309 316 306 319 321 321 317 316 312
317 318 314 308 302 299 290 272 257 253 257 262 268 272 281 288 293 298 303 303 302 306 307 306 293 293 294 299 301 309 308 310 319 321 318 312 311 314
314 314 313 306 298 291 281 269 261 261 265 268 271 278 284 289 296 303 307 305 304 308 310 314 312 309 306 304 312 316 316 317 322 318 315 313 315 321
312 314 310 303 295 286 279 271 267 267 266 268 273 280 287 292 297 300 304 306 307 308 308 311 315 321 317 311 317 318 308 319 315 315 320 316 313 316
312 312 306 299 294 286 280 275 270 268 268 269 272 278 284 291 296 301 304 306 306 308 309 313 320 318 306 306 306 310 318 319 317 315 319 321 317 318
307 309 305 299 292 285 279 273 272 271 271 272 274 278 284 289 292 297 301 305 306 308 306 308 313 310 305 303 299 306 316 323 315 313 321 318 316 312
302 304 303 299 294 286 280 276 274 273 273 274 277 281 284 285 289 294 298 302 304 306 308 312 314 313 311 308 310 311 318 323 322 319 319 318 310 295
299 301 301 297 292 289 285 281 279 279 278 277 277 278 280 282 287 291 295 299 302 305 310 313 313 314 312 312 314 311 310 315 320 323 323 326 323 318